Regional Weather Roundup
Issued by NWS

Home | Current Version | Previous Version | Text Only | Print | Product List | Glossary Off
Versions: 1 2 3 4 5 6 7 8 9 10 11 12 13 14 15 16 17 18 19 20 21 22 23 24 25 26 27 28 29 30 31 32 33 34 35 36 37 38 39 40 41 42 43 44 45 46 47 48 49 50

000
ASUS43 KLOT 200512
RWRIL

ILLINOIS REGIONAL WEATHER ROUNDUP
NATIONAL WEATHER SERVICE CHICAGO/ROMEOVILLE IL
1100 PM CST SUN FEB 19 2017

NOTE: "FAIR" INDICATES FEW OR NO CLOUDS BELOW 12,000 FEET WITH NO
SIGNIFICANT WEATHER AND/OR OBSTRUCTIONS TO VISIBILITY.

* THESE STATIONS ARE NOT UNDER NWS QUALITY CONTROL. THEY ALSO MAY NOT
  REPORT WEATHER SUCH AS PRECIPITATION OR FOG.

ILZ001-002-007-009-015-016-024-200600-
NORTHWEST ILLINOIS

CITY           SKY/WX    TMP DP  RH WIND       PRES   REMARKS
MOLINE         CLOUDY    56  45  66 S7        30.00F
STERLING*      CLOUDY    44  40  85 E6        30.06S
SAVANNA*       PTCLDY    53  42  65 SE13      30.03F
$$

ILZ003-004-008-010-011-017-018-200600-
NORTH CENTRAL ILLINOIS

CITY           SKY/WX    TMP DP  RH WIND       PRES   REMARKS
ROCKFORD       PTCLDY    48  39  71 SE3       30.09S
FREEPORT*      CLOUDY    42  35  76 SE8       30.08S
ROCHELLE*      CLOUDY    42  38  85 SE8       30.09S
DE KALB*       CLOUDY    49  43  79 SE9       30.10R
PERU*          CLOUDY    52  43  72 S7        30.08F
$$

ILZ005-006-012>014-019>023-200600-
NORTHEAST ILLINOIS

CITY           SKY/WX    TMP DP  RH WIND       PRES   REMARKS
CHICAGO-OHARE  CLOUDY    46  30  53 SE3       30.11R
CHICAGO-MIDWAY MOCLDY    49  33  54 SE5       30.11R
AURORA         CLOUDY    48  41  76 SE7       30.10R
LANSING*       PTCLDY    46  41  84 CALM      30.13R
JOLIET*        CLOUDY    51  43  74 SE3       30.11S
WAUKEGAN       CLOUDY    36  32  85 SE3       30.11R
DUPAGE AIRPORT PTCLDY    44  35  70 CALM      30.10R
KANKAKEE*      PTCLDY    44  39  82 CALM      30.13R
WHEELING       CLOUDY    41  31  67 CALM      30.12R
MORRIS*        PTCLDY    49  41  73 CALM      30.09S
ROMEOVILLE*    CLOUDY    48  44  85 S8        30.11S
NORTHERLY ISL    N/A     42  31  65 SE1         N/A
$$

LMZ740>746-200600-
SOUTHERN LAKE MICHIGAN

STATION/POSITION SKY/WX   TEMP    WIND        PRES    VSBY  WAVE
                          AIR SEA DIR/SP/G                  HT/PER
                          (F)     (DEG/KT/KT) (MB)    (MI)  (FT/S)
HARRISON CRIB              44     160/  5/  6   N/A
BURNHAM HARBOR             42     130/  2/  3   N/A
CALUMET HARBOR             42      CALM  /  2 1019.5R
BURNS HARBOR               56     130/  6/ 10 1020.7
MICHIGAN CITY              52     100/  8/  9   N/A
$$

ILZ025>027-034>036-040-047-049-050-058-095>099-200600-
WEST-CENTRAL ILLINOIS

CITY           SKY/WX    TMP DP  RH WIND       PRES   REMARKS
QUINCY         PTCLDY    58  51  78 SE12      30.00S
GALESBURG*     CLOUDY    55  49  78 SE5       30.02F
MACOMB*        MOCLDY    54  49  82 SE10      30.04S
JACKSONVILLE*  PTCLDY    55  51  84 SE8       30.05S
PITTSFIELD*    PTCLDY    56  52  85 SE9       30.03S
$$

ILZ028>032-037-038-041>044-048-051>054-059>061-200600-
CENTRAL ILLINOIS

CITY           SKY/WX    TMP DP  RH WIND       PRES   REMARKS
PONTIAC        CLOUDY    49  48  95 SE6       30.10F FOG
BLOOMINGTON    PTCLDY    49  47  93 SE12      30.09F FOG
DECATUR        FOG       47  46  97 SE7       30.09F VSB 1/4
PEORIA         CLOUDY    53  49  86 SE6       30.07S
LACON*         CLOUDY    53  47  82 S3        30.06F
LINCOLN*       CLOUDY    49  48  98 SE5       30.08S FOG
SPRINGFIELD    PTCLDY    53  50  89 S12       30.07S FOG
TAYLORVILLE    FOG       49  48  98 SE12      30.08S VSB 1
$$

ILZ033-039-045-046-055>057-062-063-200600-
EAST-CENTRAL ILLINOIS

CITY           SKY/WX    TMP DP  RH WIND       PRES   REMARKS
CHAMPAIGN      FOG       44  42  93 E6        30.11F VSB 1
RANTOUL*       MOCLDY    48  47  97 SE5       30.12F FOG
MATTOON        FOG       49  49 100 S12       30.11F VSB 3/4
PARIS*         CLOUDY    44  44  99 SE3       30.15S FOG
$$

ILZ079-100>102-200600-
SOUTHWEST ILLINOIS

CITY           SKY/WX    TMP DP  RH WIND       PRES   REMARKS
ALTON          MOCLDY    52  50  93 SE8       30.07S
BELLEVILLE     MOCLDY    50  50 100 E3        30.07S FOG
CAHOKIA*       MOCLDY    56  50  80 S6        30.07R
SPARTA*        CLOUDY    53  50  92 SE5       30.09S
$$

ILZ064>066-069>071-074>076-080>082-084>086-088>090-092>094-200600-
SOUTH-CENTRAL ILLINOIS

CITY           SKY/WX    TMP DP  RH WIND       PRES   REMARKS
CARBONDALE     PTCLDY    48  48 100 E6        30.09F FOG
CAIRO*         FOG       48  48 100 NE3       30.10S VSB<1/4
EFFINGHAM*     FOG       50  50 100 E6        30.13F VSB 1/4
MARION         PTCLDY    50  50 100 CALM      30.11F FOG
MT. VERNON     CLEAR     48  48 100 E3        30.11F FOG
CENTRALIA*     CLOUDY    51  50  99 E5        30.09F FOG
SALEM*         PTCLDY    52  50  93 SE5       30.10F FOG
METROPOLIS*    FOG       46  46 100 CALM      30.11F VSB 1/4
$$

ILZ067-068-072-073-078-083-087-091-200600-
SOUTHEAST ILLINOIS

CITY           SKY/WX    TMP DP  RH WIND       PRES   REMARKS
LAWRENCEVILLE  FOG       41  40  96 CALM      30.16R VSB<1/4
FLORA*         DRZL/FOG  50  49  97 E5        30.12F VSB 1/4
FAIRFIELD*     FOG       47  47 100 E3        30.11F VSB 1/4
HARRISBURG*    CLOUDY    50  50 100 E6        30.12F FOG
ROBINSON*      FOG       39  39 100 CALM      30.16S VSB<1/4
CARMI*         FOG       41  41 100 E6        30.13F VSB<1/4
$$

ABBREVIATIONS USED IN REMARKS
   TC - TEMPERATURE IN CELSIUS
  WCI - WIND CHILL INDEX
   HX - HEAT INDEX
  VSB - VISIBILITY
$$





USA.gov is the U.S. government's official web portal to all federal, state and local government web resources and services.